W9WRP Weather Reports


Display with metric or nautical units.
time (UTC)temp
F
wind
direction
speed
MPH
gust
MPH
rain 1hr
in
rain 24hr
in
rain mn
in
humidity
%
barometer
mb
20260507143227 70 237 0.0 0.0 0.00 0.00 0.00 27 1016.5
20260507142723 69 238 0.0 0.0 0.00 0.00 0.00 28 1016.5
20260507142220 68 240 0.0 0.0 0.00 0.00 0.00 29 1016.5
20260507141716 67 239 0.0 0.0 0.00 0.00 0.00 29 1016.3
20260507141213 66 239 0.0 0.0 0.00 0.00 0.00 30 1016.4
20260507140709 66 240 0.0 0.0 0.00 0.00 0.00 30 1016.3
20260507140207 65 237 0.0 0.0 0.00 0.00 0.00 31 1016.6
20260507135703 65 235 0.0 0.0 0.00 0.00 0.00 31 1016.3
20260507135201 64 239 0.0 0.0 0.00 0.00 0.00 31 1016.3
20260507134657 64 239 0.0 0.0 0.00 0.00 0.00 32 1016.3
20260507134154 64 239 0.0 0.0 0.00 0.00 0.00 32 1016.3
20260507133649 63 235 0.0 0.0 0.00 0.00 0.00 32 1016.2
20260507133147 62 239 0.0 0.0 0.00 0.00 0.00 33 1016.2
20260507132644 62 239 0.0 0.0 0.00 0.00 0.00 33 1016.3
20260507132140 62 238 0.0 0.0 0.00 0.00 0.00 33 1016.2
20260507131637 61 242 0.0 0.0 0.00 0.00 0.00 33 1016.1
20260507131134 61 244 0.0 0.0 0.00 0.00 0.00 32 1016.0
20260507130631 61 224 0.0 0.0 0.00 0.00 0.00 33 1015.9
20260507130129 61 248 0.0 0.0 0.00 0.00 0.00 33 1015.9
20260507125628 61 258 0.0 0.0 0.00 0.00 0.00 33 1016.1
20260507125125 60 278 1.0 1.0 0.00 0.00 0.00 33 1015.9
20260507124620 60 256 0.0 1.0 0.00 0.00 0.00 33 1015.9
20260507124119 61 259 0.0 0.0 0.00 0.00 0.00 32 1015.9
20260507123616 61 316 2.0 3.0 0.00 0.00 0.00 32 1015.8
20260507123113 60 290 0.0 0.0 0.00 0.00 0.00 33 1015.9
20260507122608 60 265 0.0 1.0 0.00 0.00 0.00 33 1015.7
20260507122104 59 264 0.0 0.0 0.00 0.00 0.00 33 1016.0
20260507121601 59 251 0.0 0.0 0.00 0.00 0.00 34 1015.8
20260507121057 60 242 0.0 0.0 0.00 0.00 0.00 33 1015.7
20260507120553 60 247 0.0 0.0 0.00 0.00 0.00 33 1015.6
20260507120050 59 242 0.0 0.0 0.00 0.00 0.00 33 1016.0
20260507115546 59 243 0.0 0.0 0.00 0.00 0.00 33 1016.1
20260507115042 59 254 0.0 0.0 0.00 0.00 0.00 33 1016.1
20260507114538 59 248 0.0 0.0 0.00 0.00 0.00 33 1016.2
20260507114035 60 235 0.0 0.0 0.00 0.00 0.00 32 1016.1
20260507113532 60 247 0.0 0.0 0.00 0.00 0.00 32 1016.2
20260507113030 61 243 0.0 0.0 0.00 0.00 0.00 31 1016.1
20260507112527 61 248 0.0 0.0 0.00 0.00 0.00 31 1016.4
20260507112024 60 250 0.0 0.0 0.00 0.00 0.00 31 1016.3
20260507111521 60 255 0.0 0.0 0.00 0.00 0.00 32 1016.3
20260507111017 61 245 0.0 0.0 0.00 0.00 0.00 31 1016.4
20260507110514 61 248 0.0 0.0 0.00 0.00 0.00 31 1016.3
20260507110010 62 246 0.0 0.0 0.00 0.00 0.00 30 1016.5
20260507105507 62 247 0.0 0.0 0.00 0.00 0.00 30 1016.3
20260507105004 64 242 0.0 0.0 0.00 0.00 0.00 29 1016.6
20260507104501 65 243 1.0 1.0 0.00 0.00 0.00 28 1016.5
20260507103956 66 5 2.0 2.0 0.00 0.00 0.00 27 1016.4
20260507103453 64 246 1.0 2.0 0.00 0.00 0.00 28 1016.5
20260507102949 64 64 1.0 2.0 0.00 0.00 0.00 29 1016.6
20260507102447 64 263 0.0 1.0 0.00 0.00 0.00 29 1016.4
20260507101943 64 339 2.0 3.0 0.00 0.00 0.00 29 1016.5
20260507101438 62 335 2.0 2.0 0.00 0.00 0.00 29 1016.4
20260507100935 62 21 2.0 2.0 0.00 0.00 0.00 29 1016.6
20260507100432 63 275 0.0 1.0 0.00 0.00 0.00 29 1016.5
20260507095930 62 335 1.0 1.0 0.00 0.00 0.00 29 1016.6
20260507095428 62 0 1.0 1.0 0.00 0.00 0.00 29 1016.4
20260507094925 63 295 1.0 1.0 0.00 0.00 0.00 29 1016.5
20260507094421 62 35 1.0 1.0 0.00 0.00 0.00 29 1016.6
20260507093918 62 247 0.0 0.0 0.00 0.00 0.00 29 1016.5
20260507093416 62 281 0.0 1.0 0.00 0.00 0.00 29 1016.5
20260507092914 62 295 1.0 2.0 0.00 0.00 0.00 29 1016.6
20260507092409 62 283 1.0 1.0 0.00 0.00 0.00 29 1016.5
20260507091907 62 249 0.0 0.0 0.00 0.00 0.00 28 1016.5
20260507091403 62 233 0.0 0.0 0.00 0.00 0.00 29 1016.7
20260507090858 63 245 0.0 0.0 0.00 0.00 0.00 28 1016.6
20260507090355 63 246 0.0 0.0 0.00 0.00 0.00 28 1016.8
20260507085852 63 246 0.0 0.0 0.00 0.00 0.00 28 1016.7
20260507085349 62 247 0.0 0.0 0.00 0.00 0.00 28 1016.9
20260507084846 62 243 0.0 0.0 0.00 0.00 0.00 29 1016.6
20260507084343 62 245 0.0 0.0 0.00 0.00 0.00 28 1016.7
20260507083840 62 243 0.0 0.0 0.00 0.00 0.00 28 1017.0
20260507083336 63 243 0.0 0.0 0.00 0.00 0.00 28 1016.7
20260507082832 63 242 0.0 0.0 0.00 0.00 0.00 27 1017.2
20260507082328 64 248 0.0 0.0 0.00 0.00 0.00 27 1017.2
20260507081826 64 247 0.0 0.0 0.00 0.00 0.00 27 1016.7
20260507081321 63 252 1.0 1.0 0.00 0.00 0.00 27 1016.7
20260507080818 64 248 0.0 0.0 0.00 0.00 0.00 27 1017.0
20260507080315 64 248 1.0 1.0 0.00 0.00 0.00 26 1016.9
20260507075810 64 245 0.0 0.0 0.00 0.00 0.00 26 1017.0
20260507075307 65 283 1.0 1.0 0.00 0.00 0.00 26 1017.0
20260507074803 65 263 1.0 1.0 0.00 0.00 0.00 26 1016.6
20260507074301 66 247 0.0 0.0 0.00 0.00 0.00 25 1016.7
20260507073758 67 287 1.0 1.0 0.00 0.00 0.00 25 1016.8
20260507073254 67 249 0.0 0.0 0.00 0.00 0.00 25 1016.8
20260507072752 67 253 0.0 0.0 0.00 0.00 0.00 25 1017.1
20260507072249 67 245 0.0 0.0 0.00 0.00 0.00 25 1017.0
20260507071746 67 287 1.0 2.0 0.00 0.00 0.00 25 1017.0
20260507071242 67 260 1.0 2.0 0.00 0.00 0.00 25 1016.9
20260507070739 67 290 1.0 1.0 0.00 0.00 0.00 25 1016.8
20260507070236 67 244 0.0 1.0 0.00 0.00 0.00 25 1016.9
20260507065733 67 258 0.0 0.0 0.00 0.00 0.00 25 1016.9
20260507065230 68 298 2.0 2.0 0.00 0.00 0.00 24 1017.1
20260507064727 68 246 0.0 0.0 0.00 0.00 0.00 24 1016.8
20260507064226 68 268 1.0 2.0 0.00 0.00 0.00 24 1016.9
20260507063723 67 312 1.0 2.0 0.00 0.00 0.00 24 1016.9
20260507063220 67 280 1.0 1.0 0.00 0.00 0.00 24 1016.8
20260507062717 67 254 1.0 2.0 0.00 0.00 0.00 24 1016.9
20260507062214 67 259 0.0 0.0 0.00 0.00 0.00 24 1016.9
20260507061712 68 245 0.0 0.0 0.00 0.00 0.00 24 1016.7
20260507061209 68 248 0.0 0.0 0.00 0.00 0.00 24 1016.8
20260507060708 68 247 0.0 0.0 0.00 0.00 0.00 24 1017.0
20260507060203 68 269 0.0 0.0 0.00 0.00 0.00 24 1016.6
20260507055700 68 275 0.0 0.0 0.00 0.00 0.00 24 1017.0
20260507055155 68 253 0.0 0.0 0.00 0.00 0.00 24 1016.8
20260507054652 68 250 0.0 0.0 0.00 0.00 0.00 24 1016.7
20260507054149 69 311 1.0 2.0 0.00 0.00 0.00 23 1016.9
20260507053647 69 250 0.0 0.0 0.00 0.00 0.00 23 1016.8
20260507053144 69 255 0.0 0.0 0.00 0.00 0.00 23 1016.9
20260507052643 70 247 0.0 0.0 0.00 0.00 0.00 23 1016.7
20260507052138 69 254 0.0 0.0 0.00 0.00 0.00 23 1016.9
20260507051636 69 248 0.0 0.0 0.00 0.00 0.00 23 1016.8
20260507051133 70 245 0.0 1.0 0.00 0.00 0.00 23 1016.8
20260507050630 70 264 1.0 1.0 0.00 0.00 0.00 23 1016.9
20260507050126 70 260 0.0 0.0 0.00 0.00 0.00 23 1016.6
20260507045623 70 245 0.0 0.0 0.00 0.00 0.00 23 1016.7
20260507045120 71 248 0.0 0.0 0.00 0.00 0.00 23 1016.6
20260507044616 71 246 0.0 0.0 0.00 0.00 0.00 23 1016.6
20260507044108 71 254 0.0 0.0 0.00 0.00 0.00 23 1016.7
20260507043604 71 247 0.0 0.0 0.00 0.00 0.00 23 1016.7
20260507043101 70 244 0.0 0.0 0.00 0.00 0.00 23 1016.5
20260507042557 70 245 0.0 0.0 0.00 0.00 0.00 24 1016.3
20260507042052 69 244 0.0 0.0 0.00 0.00 0.00 24 1016.2
20260507041550 69 245 0.0 0.0 0.00 0.00 0.00 24 1016.4
20260507041047 70 244 0.0 0.0 0.00 0.00 0.00 24 1016.2
20260507040543 70 244 0.0 0.0 0.00 0.00 0.00 24 1016.2
20260507040039 71 243 0.0 0.0 0.00 0.00 0.00 24 1016.0
20260507035535 71 242 0.0 0.0 0.00 0.00 0.00 23 1016.1
20260507035032 72 241 0.0 0.0 0.00 0.00 0.00 22 1016.0
20260507034529 73 241 0.0 0.0 0.00 0.00 0.00 22 1015.9
20260507034027 73 241 0.0 0.0 0.00 0.00 0.00 22 1015.7
20260507033524 73 242 0.0 0.0 0.00 0.00 0.00 21 1015.7
20260507033022 74 244 0.0 0.0 0.00 0.00 0.00 21 1015.7
20260507032518 74 241 0.0 0.0 0.00 0.00 0.00 21 1015.7
20260507032015 74 242 0.0 0.0 0.00 0.00 0.00 21 1015.6
20260507031511 75 243 0.0 0.0 0.00 0.00 0.00 21 1015.4
20260507031009 75 239 0.0 0.0 0.00 0.00 0.00 21 1015.4
20260507030505 76 240 0.0 0.0 0.00 0.00 0.00 20 1015.1
20260507030003 76 242 0.0 0.0 0.00 0.00 0.00 20 1015.3
20260507025459 76 240 0.0 0.0 0.00 0.00 0.00 20 1015.0
20260507024957 76 232 0.0 0.0 0.00 0.00 0.00 20 1015.4
20260507024454 77 239 0.0 0.0 0.00 0.00 0.00 20 1014.9
20260507023950 77 238 0.0 0.0 0.00 0.00 0.00 20 1015.1
20260507023447 77 217 0.0 0.0 0.00 0.00 0.00 19 1015.0
20260507022944 77 240 0.0 0.0 0.00 0.00 0.00 19 1015.1
20260507022442 78 237 0.0 0.0 0.00 0.00 0.00 19 1015.0
20260507021937 78 237 0.0 0.0 0.00 0.00 0.00 19 1015.1
20260507021432 78 237 0.0 1.0 0.00 0.00 0.00 19 1015.0
20260507020930 79 240 0.0 1.0 0.00 0.00 0.00 19 1014.7
20260507020426 79 237 0.0 0.0 0.00 0.00 0.00 19 1014.9
20260507015924 79 269 0.0 1.0 0.00 0.00 0.00 19 1014.7
20260507015422 80 238 0.0 1.0 0.00 0.00 0.00 18 1014.8
20260507014918 80 242 0.0 0.0 0.00 0.00 0.00 18 1014.9
20260507014414 80 234 1.0 1.0 0.00 0.00 0.00 18 1014.7
20260507013910 81 230 1.0 1.0 0.00 0.00 0.00 18 1014.7
20260507013408 81 185 2.0 3.0 0.00 0.00 0.00 18 1014.5
20260507012906 82 239 1.0 1.0 0.00 0.00 0.00 18 1014.7
20260507012401 82 219 1.0 1.0 0.00 0.00 0.00 18 1014.6
20260507011853 82 206 0.0 1.0 0.00 0.00 0.00 17 1014.5
20260507011349 82 231 1.0 2.0 0.00 0.00 0.00 17 1014.5
20260507010844 82 187 3.0 5.0 0.00 0.00 0.00 17 1014.6
20260507010340 83 242 1.0 2.0 0.00 0.00 0.00 17 1014.4
20260507005837 83 245 2.0 3.0 0.00 0.00 0.00 17 1014.5
20260507005334 84 253 0.0 1.0 0.00 0.00 0.00 17 1014.7
20260507004831 83 246 0.0 0.0 0.00 0.00 0.00 17 1014.4
20260507004328 84 246 0.0 0.0 0.00 0.00 0.00 17 1014.5
20260507003825 83 245 0.0 0.0 0.00 0.00 0.00 17 1014.5
20260507003321 83 234 1.0 2.0 0.00 0.00 0.00 17 1014.5
20260507002815 83 226 1.0 1.0 0.00 0.00 0.00 17 1014.4
20260507002311 84 211 3.0 3.0 0.00 0.00 0.00 17 1014.6
20260507001803 84 252 0.0 1.0 0.00 0.00 0.00 17 1014.4
20260507001301 84 214 2.0 2.0 0.00 0.00 0.00 17 1014.4
20260507000756 84 204 3.0 3.0 0.00 0.00 0.00 17 1014.6
20260507000252 84 230 1.0 1.0 0.00 0.00 0.00 18 1014.5
20260506235749 85 224 0.0 1.0 0.00 0.00 0.00 17 1014.7
20260506235244 84 243 0.0 0.0 0.00 0.00 0.00 17 1014.6
20260506234742 83 234 1.0 1.0 0.00 0.00 0.00 17 1014.7
20260506234239 82 184 3.0 3.0 0.00 0.00 0.00 18 1014.6
20260506233737 85 219 2.0 3.0 0.00 0.00 0.00 17 1014.8
20260506233233 84 225 1.0 1.0 0.00 0.00 0.00 17 1014.7
20260506232730 84 232 1.0 2.0 0.00 0.00 0.00 17 1014.6
20260506232224 82 163 2.0 2.0 0.00 0.00 0.00 18 1014.6
20260506231722 82 161 3.0 3.0 0.00 0.00 0.00 17 1014.7
20260506231220 82 170 3.0 5.0 0.00 0.00 0.00 18 1014.9
20260506230716 84 220 1.0 2.0 0.00 0.00 0.00 17 1014.9
20260506230213 84 169 3.0 3.0 0.00 0.00 0.00 17 1015.0
20260506225710 85 242 1.0 2.0 0.00 0.00 0.00 17 1015.3
20260506225207 86 237 3.0 5.0 0.00 0.00 0.00 17 1014.8
20260506224703 84 260 0.0 0.0 0.00 0.00 0.00 17 1015.1
20260506224201 85 219 0.0 0.0 0.00 0.00 0.00 17 1015.3
20260506223657 84 244 1.0 2.0 0.00 0.00 0.00 17 1015.0
20260506223152 84 255 2.0 2.0 0.00 0.00 0.00 17 1015.4
20260506222650 82 212 3.0 5.0 0.00 0.00 0.00 18 1015.4
20260506222145 82 227 2.0 2.0 0.00 0.00 0.00 18 1015.6
20260506221644 84 211 4.0 6.0 0.00 0.00 0.00 17 1015.5
20260506221142 84 250 1.0 1.0 0.00 0.00 0.00 17 1015.6
20260506220638 84 180 5.0 7.0 0.00 0.00 0.00 17 1015.6
20260506220133 84 228 1.0 1.0 0.00 0.00 0.00 17 1015.8
20260506215630 83 256 1.0 2.0 0.00 0.00 0.00 18 1015.7
20260506215125 82 234 3.0 3.0 0.00 0.00 0.00 18 1015.5
20260506214622 83 227 3.0 5.0 0.00 0.00 0.00 18 1015.7
20260506214120 83 190 3.0 3.0 0.00 0.00 0.00 18 1015.8
20260506213618 84 217 2.0 2.0 0.00 0.00 0.00 17 1016.0
20260506213115 83 233 1.0 2.0 0.00 0.00 0.00 18 1016.1
20260506212612 84 241 1.0 1.0 0.00 0.00 0.00 18 1016.0
20260506212107 83 240 5.0 8.0 0.00 0.00 0.00 18 1016.3
20260506211603 84 250 1.0 1.0 0.00 0.00 0.00 18 1016.4
20260506211100 82 193 1.0 2.0 0.00 0.00 0.00 18 1016.6
20260506210556 84 218 2.0 2.0 0.00 0.00 0.00 18 1016.4
20260506210053 84 232 3.0 3.0 0.00 0.00 0.00 18 1016.7
20260506205550 82 287 1.0 2.0 0.00 0.00 0.00 18 1016.7
20260506205045 84 249 1.0 1.0 0.00 0.00 0.00 17 1016.8
20260506204543 83 254 1.0 1.0 0.00 0.00 0.00 18 1016.9
20260506204040 83 213 1.0 2.0 0.00 0.00 0.00 18 1016.7
20260506203539 83 235 0.0 1.0 0.00 0.00 0.00 18 1016.9
20260506203035 82 258 1.0 2.0 0.00 0.00 0.00 18 1016.9
20260506202532 82 212 1.0 1.0 0.00 0.00 0.00 19 1017.0
20260506202028 80 246 1.0 2.0 0.00 0.00 0.00 19 1017.0
20260506201526 81 194 5.0 6.0 0.00 0.00 0.00 19 1017.4
20260506201022 81 229 1.0 2.0 0.00 0.00 0.00 19 1017.1
20260506200519 81 214 1.0 2.0 0.00 0.00 0.00 20 1017.2
20260506200016 82 249 0.0 1.0 0.00 0.00 0.00 19 1017.4
20260506195513 82 236 1.0 3.0 0.00 0.00 0.00 19 1017.4
20260506195009 82 242 2.0 2.0 0.00 0.00 0.00 19 1017.4
20260506194507 82 230 0.0 0.0 0.00 0.00 0.00 19 1017.5
20260506194003 81 254 0.0 0.0 0.00 0.00 0.00 19 1017.6
20260506193500 81 248 0.0 1.0 0.00 0.00 0.00 19 1017.6
20260506192956 82 264 1.0 1.0 0.00 0.00 0.00 19 1017.7
20260506192454 81 259 1.0 1.0 0.00 0.00 0.00 19 1017.7
20260506191950 81 256 1.0 2.0 0.00 0.00 0.00 19 1017.6
20260506191447 80 222 2.0 3.0 0.00 0.00 0.00 20 1017.7
20260506190943 80 255 0.0 0.0 0.00 0.00 0.00 20 1017.7
20260506190440 77 230 0.0 0.0 0.00 0.00 0.00 21 1017.9
20260506185937 79 292 4.0 5.0 0.00 0.00 0.00 20 1017.9
20260506185434 80 244 1.0 2.0 0.00 0.00 0.00 20 1017.8
20260506184931 79 210 1.0 2.0 0.00 0.00 0.00 20 1017.8
20260506184427 78 184 3.0 3.0 0.00 0.00 0.00 21 1017.9
20260506183925 79 254 0.0 0.0 0.00 0.00 0.00 21 1018.1
20260506183420 79 278 2.0 3.0 0.00 0.00 0.00 20 1018.3
20260506182918 78 240 0.0 0.0 0.00 0.00 0.00 21 1018.3
20260506182415 80 246 1.0 1.0 0.00 0.00 0.00 20 1018.3
20260506181913 78 356 2.0 2.0 0.00 0.00 0.00 21 1018.2
20260506181410 80 301 4.0 6.0 0.00 0.00 0.00 20 1018.3
20260506180907 78 242 0.0 1.0 0.00 0.00 0.00 21 1018.3
20260506180403 78 212 0.0 0.0 0.00 0.00 0.00 22 1018.4
20260506175900 75 200 1.0 1.0 0.00 0.00 0.00 23 1018.5
20260506175356 77 215 2.0 2.0 0.00 0.00 0.00 22 1018.6
20260506174853 77 221 0.0 0.0 0.00 0.00 0.00 21 1018.5
20260506174351 76 251 1.0 1.0 0.00 0.00 0.00 22 1018.7
20260506173848 75 227 0.0 0.0 0.00 0.00 0.00 24 1018.7
20260506173344 77 216 1.0 2.0 0.00 0.00 0.00 23 1018.3
20260506172842 77 250 0.0 0.0 0.00 0.00 0.00 23 1018.6
20260506172338 77 237 0.0 0.0 0.00 0.00 0.00 24 1018.4
20260506171836 76 256 0.0 0.0 0.00 0.00 0.00 24 1018.7
20260506171333 76 191 1.0 2.0 0.00 0.00 0.00 24 1018.3
20260506170831 75 230 0.0 1.0 0.00 0.00 0.00 25 1018.3
20260506170326 76 221 0.0 0.0 0.00 0.00 0.00 25 1018.4
20260506165825 76 237 0.0 0.0 0.00 0.00 0.00 26 1018.5
20260506165318 75 241 0.0 1.0 0.00 0.00 0.00 26 1018.3
20260506164814 74 226 0.0 0.0 0.00 0.00 0.00 26 1018.5
20260506164310 73 308 1.0 1.0 0.00 0.00 0.00 26 1018.5
20260506163808 73 241 0.0 1.0 0.00 0.00 0.00 27 1018.4
20260506163307 73 226 1.0 1.0 0.00 0.00 0.00 26 1018.5
20260506162803 73 320 0.0 0.0 0.00 0.00 0.00 27 1018.6
20260506162302 72 239 0.0 1.0 0.00 0.00 0.00 28 1018.3
20260506161759 71 196 0.0 1.0 0.00 0.00 0.00 29 1018.5
20260506161256 70 211 3.0 3.0 0.00 0.00 0.00 29 1018.4
20260506160753 70 213 1.0 1.0 0.00 0.00 0.00 29 1018.2
20260506160250 70 244 0.0 1.0 0.00 0.00 0.00 29 1018.5
20260506155749 69 129 1.0 1.0 0.00 0.00 0.00 30 1018.4
20260506155245 69 191 3.0 3.0 0.00 0.00 0.00 30 1018.1
20260506153353 68 190 4.0 5.0 0.00 0.00 0.00 31 1018.5
20260506152850 68 182 3.0 3.0 0.00 0.00 0.00 31 1018.3
20260506152347 67 199 3.0 3.0 0.00 0.00 0.00 31 1018.3
20260506151845 67 216 1.0 2.0 0.00 0.00 0.00 31 1018.6
20260506151342 66 232 1.0 1.0 0.00 0.00 0.00 33 1018.4
20260506150839 66 191 3.0 3.0 0.00 0.00 0.00 33 1018.5
20260506150336 66 195 1.0 1.0 0.00 0.00 0.00 33 1018.3
20260506145832 65 165 3.0 3.0 0.00 0.00 0.00 33 1018.5
20260506145329 65 220 1.0 1.0 0.00 0.00 0.00 34 1018.4
20260506144827 65 241 0.0 1.0 0.00 0.00 0.00 34 1018.2
20260506144323 64 249 0.0 0.0 0.00 0.00 0.00 35 1018.4
20260506143821 64 207 1.0 1.0 0.00 0.00 0.00 35 1018.5
20260506143318 63 228 0.0 1.0 0.00 0.00 0.00 35 1018.4